Location: Cuiabá
(15.6014°S, 56.0979°W)
Time: 10:05:21
(UTC-04:00)

Envisat - Pass Details

Date: 27 November 2022
Orbit: 763 x 765 km, 98.2° (Epoch: 02 February)

Event Time Altitude Azimuth Distance (km) Brightness Sun altitude
Exits shadow 04:24:12 - 328° (NNW) 2,580 5.2 -9.5°
Reaches altitude 10° 04:25:14 10° 320° (NW) 2,293 4.9 -9.3°
Maximum altitude 04:28:35 18° 278° (W) 1,820 4.4 -8.5°
Drops below altitude 10° 04:31:57 10° 237° (WSW) 2,307 5.2 -7.8°
Sets 04:35:00 0° 218° (SW) 3,240 6.1 -7.1°
